Location: Unspecified
(0.0000°N, 0.0000°E)
Time: 13:20:41
(UTC+00:00)

Vanguard 3 - All Passes

Search period start: 29 March 2017 00:00
Search period end: 08 April 2017 00:00
Orbit: 508 x 3265 km, 33.3° (Epoch: 27 March)

Date Brightness Start Highest point End Pass type
(mag) Time Alt. Az. Time Alt. Az. Time Alt. Az.
29 Mar - 01:28:14 10° N 01:30:19 14° NE 01:32:35 10° ENE night (unlit)
29 Mar - 03:37:31 10° WNW 03:41:38 46° SSW 03:47:58 10° SE visible
29 Mar - 05:52:36 10° SW 05:55:59 13° SSW 06:00:11 10° SSE daylight
29 Mar - 08:13:01 10° S 08:14:14 10° S 08:15:29 10° S daylight
29 Mar - 10:23:52 10° SSW 10:35:10 21° SSE 10:48:14 10° ESE daylight
29 Mar - 12:36:41 10° SW 12:54:54 48° SSE 13:12:02 10° ENE daylight
29 Mar - 14:52:20 10° WSW 15:12:38 81° NW 15:27:20 10° NE daylight
29 Mar - 17:13:54 10° W 17:28:11 30° NW 17:38:02 10° NNE daylight
30 Mar - 02:24:32 10° NW 02:28:14 67° NE 02:33:18 10° ESE visible
30 Mar - 04:37:17 10° WSW 04:40:55 18° SSW 04:45:49 10° SSE visible
30 Mar - 09:10:38 10° S 09:17:05 14° SSE 09:24:37 10° SE daylight
30 Mar - 11:21:59 10° SSW 11:37:15 34° SSE 11:53:55 10° E daylight
30 Mar - 13:35:47 10° SW 13:55:46 74° SE 14:12:37 10° ENE daylight
30 Mar - 15:53:58 10° WSW 16:12:27 50° NW 16:25:19 10° NNE daylight
30 Mar - 18:21:20 10° WNW 18:28:06 14° NNW 18:33:33 10° N visible
31 Mar - 01:12:22 10° NNW 01:15:10 20° NE 01:18:09 10° E night (unlit)
31 Mar - 03:23:00 10° W 03:26:39 30° SSW 03:31:48 10° SSE visible
31 Mar - 10:08:09 10° SSW 10:19:33 22° SSE 10:33:10 10° ESE daylight
31 Mar - 12:20:22 10° SW 12:38:28 54° SE 12:56:29 10° ENE daylight
31 Mar - 14:35:56 10° WSW 14:56:05 73° NW 15:11:38 10° NE daylight
31 Mar - 16:58:09 10° W 17:12:15 27° NW 17:22:25 10° NNE daylight
01 Apr - 02:09:31 10° WNW 02:13:10 79° SSW 02:17:48 10° SE night (unlit)
01 Apr - 04:24:04 10° SW 04:26:03 12° SSW 04:28:20 10° S visible
01 Apr - 08:55:34 10° S 09:01:55 14° SSE 09:09:24 10° SE daylight
01 Apr - 11:05:55 10° SSW 11:21:05 37° SSE 11:38:29 10° E daylight
01 Apr - 13:19:26 10° SW 13:39:08 82° SE 13:56:53 10° ENE daylight
01 Apr - 15:37:51 10° WSW 15:56:07 45° NW 16:09:37 10° NNE daylight
01 Apr - 18:06:22 10° NW 18:12:42 13° NNW 18:17:58 10° N daylight
02 Apr - 00:56:43 10° NNW 01:00:04 30° NE 01:03:28 10° E night (unlit)
02 Apr - 03:08:43 10° WSW 03:11:43 20° SSW 03:15:30 10° SSE visible
02 Apr - 09:52:24 10° SSW 10:03:48 24° SSE 10:17:57 10° ESE daylight
02 Apr - 12:04:10 10° SW 12:21:55 60° SE 12:40:46 10° ENE daylight
02 Apr - 14:19:43 10° WSW 14:39:30 66° NW 14:55:49 10° NE daylight
02 Apr - 16:42:34 10° W 16:56:22 25° NW 17:06:45 10° NNE daylight
02 Apr - 23:45:10 10° N 23:46:30 11° NNE 23:47:47 10° NE night (unlit)
03 Apr - 01:54:36 10° WNW 01:58:08 48° SW 02:02:16 10° SE night (unlit)
03 Apr - 08:40:16 10° S 08:46:40 14° SSE 08:54:19 10° SE daylight
03 Apr - 10:49:56 10° SSW 11:04:49 41° SE 11:22:51 10° E daylight
03 Apr - 13:03:15 10° SW 13:22:27 90° NW 13:40:58 10° NE daylight
03 Apr - 15:21:56 10° W 15:39:48 40° NW 15:53:48 10° NNE daylight
03 Apr - 17:51:26 10° NW 17:57:23 13° NNW 18:02:28 10° N daylight
04 Apr - 00:41:13 10° NW 00:45:02 47° NE 00:48:37 10° ESE night (unlit)
04 Apr - 02:54:58 10° SW 02:56:47 13° SSW 02:58:49 10° S night (unlit)
04 Apr - 09:36:40 10° SSW 09:47:57 26° SSE 10:02:34 10° E daylight
04 Apr - 11:48:06 10° SW 12:05:19 67° SE 12:24:49 10° ENE daylight
04 Apr - 14:03:40 10° WSW 14:22:54 59° NW 14:39:51 10° NE daylight
04 Apr - 16:27:10 10° WNW 16:40:33 23° NNW 16:51:04 10° NNE daylight
04 Apr - 23:28:20 10° NNW 23:31:32 18° NNE 23:34:15 10° ENE night (unlit)
05 Apr - 01:39:49 10° W 01:43:07 30° SSW 01:46:39 10° SSE night (unlit)
05 Apr - 08:24:49 10° S 08:31:19 15° SSE 08:39:17 10° ESE daylight
05 Apr - 10:34:02 10° SSW 10:48:27 46° SE 11:06:59 10° ENE daylight
05 Apr - 12:47:14 10° WSW 13:05:45 82° NW 13:24:53 10° NE daylight
05 Apr - 15:06:13 10° W 15:23:33 36° NW 15:37:54 10° NNE daylight
05 Apr - 17:36:24 10° NW 17:42:10 12° NNW 17:47:10 10° N daylight
06 Apr - 00:25:45 10° NW 00:30:00 77° NE 00:33:39 10° ESE night (unlit)
06 Apr - 09:20:58 10° SSW 09:32:01 29° SE 09:47:00 10° E daylight
06 Apr - 11:32:12 10° SW 11:48:40 74° SE 12:08:41 10° ENE daylight
06 Apr - 13:47:50 10° WSW 14:06:20 53° NW 14:23:46 10° NE daylight
06 Apr - 16:11:54 10° WNW 16:24:50 21° NNW 16:35:22 10° NNE daylight
06 Apr - 23:12:05 10° NNW 23:16:36 28° NNE 23:20:00 10° E night (unlit)
07 Apr - 01:25:12 10° W 01:28:04 20° SW 01:30:55 10° SSE night (unlit)
07 Apr - 08:09:16 10° S 08:15:52 16° SSE 08:24:12 10° ESE daylight
07 Apr - 10:18:15 10° SW 10:32:04 51° SE 10:50:56 10° ENE daylight
07 Apr - 12:31:24 10° WSW 12:49:05 74° NW 13:08:38 10° NE daylight
07 Apr - 14:50:43 10° W 15:07:23 33° NNW 15:21:55 10° NNE daylight
07 Apr - 17:21:10 10° NW 17:27:02 12° NNW 17:32:08 10° N daylight
07 Apr - 21:58:36 10° NNW 22:02:26 16° NNE 22:05:28 10° ENE visible
